KINEIS-4C

Last updated on Mon Dec 15 2025 00:02:49 GMT+0000 (Coordinated Universal Time)

1 63301U 25056B 25348.33886749 .00003017 00000+0 48600-3 0 9992 2 63301 98.0004 111.1550 0001306 165.7476 194.3769 14.72215741 39933
UTC large
Height (km)
Speed (km/s)
/
Latitude / Longitude
Inclination (degrees)
Orbital Period (minutes)
Azimuth
Elevation
Range (km)
Doppler Factor

Next 0 passes for location: London (51.5072 / 0.1276)

Sorry there are no passes over London.